Regional Weather Roundup
Issued by NWS Green Bay, WI

Home | Current Version | Previous Version | Text Only | Print | Product List | Glossary On
Versions: 1 2 3 4 5 6 7 8 9 10 11 12 13 14 15 16 17 18 19 20 21 22 23 24 25 26 27 28 29 30 31 32 33 34 35 36 37 38 39 40 41 42 43 44 45 46 47 48 49 50
000
ASUS43 KGRB 230110
RWRGRB

NORTH-CENTRAL AND NORTHEAST WISCONSIN REGIONAL WEATHER ROUNDUP
NATIONAL WEATHER SERVICE GREEN BAY WI
800 PM CDT TUE JUL 22 2014

WIZ005-009-010>012-018-019-230200-
NORTH CENTRAL WISCONSIN

CITY           SKY/WX    TMP DP  RH WIND       PRES   REMARKS
IRONWOOD       NOT AVBL
MANITOWISH WTR CLEAR     65  60  82 N5        30.11R
ARBOR VITAE    CLEAR     68  59  73 N9        30.11R
EAGLE RIVER    MOCLDY    63  57  80 N6        30.10R
LAND O LAKES   CLOUDY    64  59  83 N10       30.12R
RHINELANDER    CLOUDY    66  59  78 N5        30.11R
PHILLIPS       CLEAR     69  59  69 N7        30.10R
ANTIGO         CLOUDY    66  60  81 N15G25    30.08R
TOMAHAWK       CLEAR     67  58  73 CALM      30.11R
MERRILL        CLEAR     69  59  70 N12       30.09R
$$

WIZ013-073-230200-
NORTHEAST WISCONSIN

CITY           SKY/WX    TMP DP  RH WIND       PRES   REMARKS
IRON MOUNTAIN  MOCLDY    65  57  75 N18G29    30.05R
MARINETTE      PTCLDY    73  61  64 N17G25    29.96R
OCONTO         CLOUDY    77  64  63 NW13G20   29.97R
$$

WIZ017-030-035>037-045-230200-
CENTRAL WISCONSIN

CITY           SKY/WX    TMP DP  RH WIND       PRES   REMARKS
MEDFORD        CLEAR     70  60  70 N8        30.09R
WAUSAU         CLEAR     72  60  66 N17G25    30.05R
MOSINEE        MOCLDY    73  63  68 N16       30.07R
MARSHFIELD     MOCLDY    77  63  61 N17G25    30.06R
WISC RAPIDS    CLEAR     78  63  59 N13       30.04R
STEVENS POINT  PTCLDY    74  62  64 N10       30.04R
WAUPACA        MOCLDY    81  62  52 NW12G21   30.00R
SHAWANO        CLOUDY    78  64  60 N15       30.00R
CLINTONVILLE   CLOUDY    79  61  53 N14G20    30.00R
$$

WIZ038-039-048-051-230200-
FOX VALLEY

CITY           SKY/WX    TMP DP  RH WIND       PRES   REMARKS
NWS GREEN BAY  MOCLDY    80  64  58 NW17G26   29.96R
APPLETON       MOCLDY    81  63  54 N17G28    29.98R
OSHKOSH        CLEAR     82  66  58 NW9       29.95R
FOND DU LAC    CLEAR     83  65  54 NW16G23   29.96R
$$

WIZ022-050-052-230200-
EAST CENTRAL WISCONSIN

CITY           SKY/WX    TMP DP  RH WIND       PRES   REMARKS
STURGEON BAY   MOCLDY    75  63  64 N17G26    29.96R
MANITOWOC      PTCLDY    84  66  54 N15G24    29.93R
SHEBOYGAN      PTCLDY    83  67  58 NW10      29.93R
$$

LMZ563-521-522-541>543-230200-
LAKESHORE

STATION/POSITION TIME  TEMP    WIND        PRES    VSBY  WAVE
                       AIR SEA DIR/SP/G                  HT/PER
                 (UTC) (F)     (DEG/KT/KT) (MB)    (MI)  (FT/S)
SHEBOYGAN LKSHOR 0100   87     330/ 10/ 12 1012.8R
KEWAUNEE LKSHORE 0100          340/ 10/ 22 1014.2R
TWO RIVERS CG    0000                        N/A    3 1/2  4
NORTHPORT PIER   0100   70     330/ 19/ 25 1014.6R
N MID LAKE BUOY  0100   63 60  340/ 16/ 21 1013.3R         4/ 7
CHAMBERS ISLAND  0100   70     310/ 18/ 24 1014.2R
MENOMINEE LKSHOR 0100   69     320/ 21/ 27 1015.1R
$$


USA.gov is the U.S. government's official web portal to all federal, state and local government web resources and services.